Regional Weather Roundup
Issued by NWS Wakefield, VA

Home | Current Version | Previous Version | Graphics & Text | Print | Product List | Glossary On
Versions: 1 2 3 4 5 6 7 8 9 10 11 12 13 14 15 16 17 18 19 20 21 22 23 24 25 26 27 28 29 30 31 32 33 34 35 36 37 38 39 40 41 42 43 44 45 46 47 48 49 50
000
ASUS41 KAKQ 171016
RWRAKQ

REGIONAL WEATHER ROUNDUP
NATIONAL WEATHER SERVICE WAKEFIELD VA
500 AM EST SUN DEC 17 2017

Note: "fair" indicates few or no clouds below 12,000 feet with no
significant weather and/or obstructions to visibility. * = Denotes
station may not report precipitation (e.g., rain,snow,etc.),
thunder or fog.

VAZ042-051-052>054-056-171100-
NORTHERN VIRGINIA

CITY           SKY/WX    TMP DP  RH WIND       PRES   REMARKS
WASH NATIONAL  PTCLDY    33  27  78 S5        30.24F
DULLES         CLOUDY    25  22  88 CALM      30.23S
FORT BELVOIR   CLOUDY    24  21  89 CALM      30.24F
QUANTICO       CLOUDY    28  25  88 NW7       30.25F
FREDERICKSBRG* CLOUDY    25  23  95 CALM      30.24S
STAFFORD*      CLOUDY   N/A N/A N/A CALM      30.27F
WARRENTON      CLOUDY    22  18  85 CALM      30.22S
CULPEPER*      CLOUDY    23  19  85 CALM      30.24S
MANASSAS*      PTCLDY    20  18  92 CALM      30.24F
LEESBURG*      CLOUDY    27  25  93 CALM      30.23S
WINCHESTER     CLOUDY    34  23  64 W6        30.20F
FRONT ROYAL*   CLOUDY    28  23  80 MISG      30.20F
LURAY*         CLOUDY    30  27  86 S6        30.22S
$$

VAZ048-049-060>072-079>083-171100-
CENTRAL AND SOUTH CENTRAL VIRGINIA

CITY           SKY/WX    TMP DP  RH WIND       PRES   REMARKS
RICHMOND       CLOUDY    28  23  81 CALM      30.23S
CHESTERFIELD*  NOT AVBL
PETERSBURG*    CLOUDY    25  19  80 CALM      30.23F
HANOVER        CLOUDY    27  24  89 CALM      30.24F
TAPPAHANNOCK*  CLOUDY    27  25  92 CALM      30.25R
QUINTON*       FAIR      26  25  96 CALM      30.23F
CHARLOTTSVILLE CLOUDY    32  25  75 CALM      30.21F
GORDONSVILLE*  CLOUDY    26  24  91 CALM      30.21F
ORANGE*        CLOUDY    25  21  86 CALM      30.22F
LOUISA*        PTCLDY    28  23  80 CALM      30.26S
BUMPASS*       FAIR      27  24  86 CALM      30.23S
FARMVILLE*     CLOUDY    31  28  86 CALM      30.21S
CREWE*         FAIR      29  26  87 CALM      30.21F
FORT PICKETT*  NOT AVBL
CHASE CITY*    FAIR      28  27  95 CALM      30.24R
CLARKSVILLE*   FAIR      30  25  80 CALM      30.24R
SOUTH HILL*    CLOUDY    28  26  93 CALM      30.29S
LAWRENCEVILLE* FAIR      27  24  89 CALM      30.23S
EMPORIA*       CLOUDY    27  23  86 CALM      30.27R
$$

VAZ088>098-171100-
SOUTHEAST VIRGINIA

CITY           SKY/WX    TMP DP  RH WIND       PRES   REMARKS
NORFOLK        CLEAR     31  25  78 S3        30.25F
VIRGINIA BEACH CLEAR     32  23  69 SW5       30.25F
NORFOLK NAVAL  CLEAR     34  26  72 CALM      30.26F
WEST POINT*    CLEAR    N/A N/A N/A CALM      30.26S
SALUDA*        FAIR      30  27  86 CALM      30.24S
NEWPORT NEWS   CLEAR     29  24  82 CALM      30.25S
LANGLEY AFB    CLEAR     31  26  83 CALM      30.24F
FORT EUSTIS    CLEAR     30  24  79 CALM      30.22F
WILLIAMSBURG*  CLEAR     30  27  86 CALM      30.25F
HR EXEC AP*    FAIR      22  19  89 CALM      30.26F
FRANKLIN*      CLOUDY    26  24  91 CALM      30.26S
US460-WAKEFLD  PTCLDY    26  24  92 CALM      30.24F
$$

VAZ020-022-025-037-045-171100-
WEST CENTRAL AND SOUTHWEST VIRGINIA

CITY           SKY/WX    TMP DP  RH WIND       PRES   REMARKS
STAUNTON*      PTCLDY    25  21  83 NE3       30.23F
WAYNESBORO*    MOSUNNY   39  23  52 W7        30.21F
HOT SPRINGS VA CLOUDY    33  21  61 W9        30.15F
LYNCHBURG      CLOUDY    26  22  84 CALM      30.22R
DANVILLE       CLOUDY    27  24  89 W5        30.24F
SOUTH BOSTON*  FAIR      27  22  80 CALM      30.25R
MARTINSVILLE   CLOUDY    24  21  88 CALM      30.26F
ROANOKE        PTCLDY    35  24  64 E5        30.24S
BLACKSBURG     CLOUDY    29  25  83 CALM      30.24S
DUBLIN*        PTCLDY    29  25  83 NW7       30.24S
MARION*        CLOUDY    33  25  71 W10       30.25R WCI  25
HILLSVILLE*    CLOUDY    33  21  60 CALM      30.21R
RICHLANDS*     FAIR      34  24  67 CALM      30.23R
WISE*          CLOUDY    32  28  86 CALM      30.21F
ABINGDON*      CLOUDY    30  26  84 SE3       30.24S
$$

MDZ021>025-VAZ099-100-171100-
SOUTHERN MARYLAND AND THE DELMARVA PENINSULA

CITY           SKY/WX    TMP DP  RH WIND       PRES   REMARKS
PATUXENT RIVER PTCLDY    29  25  85 NE3       30.23F
BAY BRIDGE APT CLOUDY    30  27  86 CALM      30.23S
LEONARDTOWN    PTCLDY    30  27  86 CALM      30.25F
DOVER          PTCLDY    27  27 100 CALM      30.23S
GEORGETOWN     CLOUDY    29  26  89 CALM      30.24F
EASTON         PTCLDY    28  25  88 CALM      30.27S
CAMBRIDGE      CLEAR     27  25  93 CALM      30.24S
SALISBURY      CLOUDY    27  26  96 S3        30.24S
OCEAN CITY     PTCLDY    31  27  85 W3        30.25S
WALLOPS ISLAND PTCLDY    37  31  78 NW3       30.24F
ACCOMACK*      PTCLDY    32  30  90 CALM      30.24F
$$

NCZ012>017-030>032-171100-
NORTH CENTRAL AND EASTERN NORTH CAROLINA

CITY           SKY/WX    TMP DP  RH WIND       PRES   REMARKS
ROANOKE RAPIDS FAIR      28  27  93 CALM      30.25F
RALEIGH        CLOUDY    31  24  75 CALM      30.26F
ELIZABETH CITY CLOUDY    31  29  92 SW5       30.27S
AHOSKIE*       PTCLDY    27  26  94 CALM      30.26F
EDENTON*       NOT AVBL
CURRITUCK*     CLOUDY    33  29  86 S3        30.27S
KILL DEVIL HLS CLOUDY    36  31  81 CALM      30.27R
MANTEO         CLOUDY    38  31  74 W3        30.29S
CAPE HATTERAS  CLEAR     36  35  96 W5        30.29S
TARBORO*       NOT AVBL
GOLDSBORO      CLOUDY    29  25  84 CALM      30.25F
WASHINGTON     PTCLDY    32  26  77 CALM      30.29S
GREENVILLE     CLOUDY    32  28  86 CALM      30.28F
NEW BERN       CLOUDY    28  28 100 S3        30.30F
WILMINGTON     CLOUDY    30  29  96 CALM      30.29S FOG
$$

VAZ048-171100-
ELSEWHERE

CITY           SKY/WX    TMP DP  RH WIND       PRES   REMARKS
HARRISBURG PA  PTCLDY    25  23  92 CALM      30.21S
BALTIMORE      PTCLDY    26  24  92 SW5       30.22S
ANNAPOLIS      PTCLDY    32  30  92 CALM      30.23R
ANDREWS AFB    PTCLDY    28  22  79 CALM      30.22S
PHILADELPHIA   PTCLDY    31  25  78 E6        30.24S
HENDERSON NC   CLOUDY    27  21  78 SW6       30.24S
GREENSBORO     CLOUDY    30  24  78 CALM      30.23F
ROCKY MOUNT    CLOUDY    29  27  92 CALM      30.27S
$$

VAZ100-171100-
MARINE

STATION/POSITION TIME  TEMP    WIND        PRES    WAVE   SWELL
                       AIR SEA DIR/SP/G            HT/PER HT/PER
                 (UTC) (F)     (DEG/KT/KT) (MB)    (FT/S) (FT/S)
BRANDYWINE LGT   0942   40     250/  4/  4 1024.4R
CAPE MAY NJ      0948   37 39  280/  2/  3 1023.6S
LEWES DE         0942   36 41  300/  1/  2 1023.9R
15NM E FENWICK I 0950   46 51  310/  8/ 10 1024.4R   3/ 3   2/ 5
OCEAN-CITY-INLET 0942   39 41  330/  3/  5 1024.5R
WACHAPREAGUE VA  0942   34 38     CALM     1024.1F
THOMAS POINT MD  1000   38 43  220/  6/  6   N/A
GOOSES REEF MD   1000   41 44  230/  2/  4 1024.2    0
COVE POINT MD    0942   38     280/  3/  5 1024.4F
SOLOMONS ISLAND  0942   36 45  360/  2/  3 1023.5F
BISHOPS HEAD MD  0942   40 36  260/  4/  4 1024.2F
PINEY POINT MD   0942          330/  3/  4   N/A
POTOMAC MD       1000   41 44  290/  6/  8 1023.4    0
CAMBRIDGE MD     0942   31 39              1024.7R
LEWISETTA VA     0942   35 40   CALM  /  1 1024.0F
RAPPAHANNOCK LGT 0942          290/  4/  4 1024.7F
STINGRAY PT      1000   40 45  270/  2/  4 1024.5    0
YORK RVR RNG VA  0942   42     230/  5/  6 1024.7F
YORKTOWN VA      0942   37 45  200/  3/  4 1024.0S
JAMESTOWN VA     1000      42  100/  2/  4   N/A     0
DOMINION TERM VA 0942   39     220/  4/  5 1024.5F
KIPTOPEKE VA     0942      44  290/  5/  6   N/A
CAPE HENRY VA    0942   38     240/  8/ 10   N/A
WILLOUBY STN VA  0942          220/  7/  8 1024.1F
S CRANEY ISL VA  0942   38     190/  3/  6 1024.4F
CAPE HENRY BUOY  1000      50                N/A     1/ 3
1ST LANDING BUOY 1000   40 46  250/  6/  8 1024.4    1
CAPE CHARLES BUO 0951      49                N/A     1/10
64NM E OF VA BCH 0950   51 59  290/ 12/ 16 1024.8R   3/ 4
DUCK PIER NC     0942   41 52  240/  9/ 10 1024.6R
44100 DUCK FRF   0945      54                N/A     2/ 2
44056 DUCK FRF   1000      54                N/A     1/10
OREGON INLET NC  0942   42 46  230/  7/  9 1025.4S
HATTERAS NC      0942   44 51  260/  3/  4 1025.3F
DIAMOND SHLS NC  0950   52 72  300/ 12/ 16 1025.7F   3/ 4   2/ 8
CAPE LOOKOUT NC  1000          340/  5/  6 1026.0S
$$



USA.gov is the U.S. government's official web portal to all federal, state and local government web resources and services.